Tracking 29892 objects as of 21-Nov-2024
HD Live streaming from Space Station
objects crossing your sky now

STARLINK-3503

Track STARLINK-3503 now!
10-day predictions
STARLINK-3503 is classified as:


NORAD ID: 51865
Int'l Code: 2022-022P
Perigee: 545.9 km
Apogee: 547.8 km
Inclination: 53.2 °
Period: 95.4 minutes
Semi major axis: 6917 km
RCS: Unknown
Launch date: March 3, 2022
Source: United States (US)
Launch site: AIR FORCE EASTERN TEST RANGE (AFETR)
Your satellite tracking list
Your tracking list is empty




NASA's NSSDC Master Catalog

Two Line Element Set (TLE):
1 51865U 22022P   24325.42013129  .00001337  00000-0  10206-3 0  9997
2 51865  53.2171 338.1959 0001348  83.2554 276.8592 15.08847500151517
Source of the keplerian elements: AFSPC